Flag for Macedonia, Republic of Weather past 2 weeks in Kumanovo, Macedonia, Republic of

Now
50 °F

Broken clouds.


Feels Like: 50 °F
Forecast: 44 / 63 °F
Wind: No wind

Location: Skopje-Petrovec


UV Index: 0 (Low)

Visibility: N/A


Pressure: 29.89 "Hg

Humidity: 94%

Dew point: 48 °F

Location of KumanovoLocation

Historic Weather in Kumanovo

°F

Kumanovo temperature yesterday

Maximum temperature yesterday: 52 °F (at 1:30 PM)
Minimum temperature yesterday: 45 °F (at 12:00 AM)
Average temperature yesterday: 48 °F

Past Weeks' High & Low Weather Summary

 TemperatureHumidityPressure
High73 °F (Apr 8, 5:00 PM)100% (Apr 6, 5:00 AM)30.12 "Hg (Apr 6, 5:00 AM)
Low34 °F (Apr 12, 2:00 AM)29% (Apr 8, 5:00 PM)29.62 "Hg (Apr 18, 10:00 AM)
Average50 °F76%29.92 "Hg
* Reported Apr 5 8:00 AM — Apr 20 8:00 AM, Kumanovo, Weather by CustomWeather, © 2014

Note: Actual official high and low records may vary slightly from our data, if they occured in-between our weather recording intervals... More about our weather records

Advertising

Historic Weather Conditions — Data for Previous 24 hours

 ConditionsComfort  
Time TempWeatherWind HumidityBarometerVisibility
8:00 AM
Apr 20
50 °FBroken clouds.No wind94%29.89 "HgN/A
7:30 AM48 °FBroken clouds.No wind94%29.89 "HgN/A
7:00 AM48 °FCloudy.No wind94%29.89 "HgN/A
6:30 AM48 °FPartly cloudy.No wind94%29.86 "HgN/A
6:00 AM46 °FLight rain. Partly cloudy.No wind100%29.86 "HgN/A
5:30 AM48 °FPartly cloudy.No wind94%29.86 "HgN/A
5:00 AM48 °FPartly cloudy.No wind94%29.86 "HgN/A
4:30 AM48 °FLight rain. Partly cloudy.No wind94%29.86 "HgN/A
4:00 AM48 °FLight rain. Partly cloudy.No wind94%29.86 "HgN/A
3:30 AM48 °FRain. Passing clouds.3 mph94%29.86 "HgN/A
3:00 AM46 °FPassing clouds.2 mph93%29.86 "HgN/A
2:30 AM46 °FPassing clouds.3 mph93%29.86 "HgN/A
2:00 AM46 °FPassing clouds.2 mph93%29.86 "HgN/A
1:30 AM46 °FPassing clouds.3 mph93%29.86 "HgN/A
1:00 AM46 °FPassing clouds.No wind93%29.86 "HgN/A
12:30 AM46 °FPassing clouds.No wind93%29.86 "HgN/A
12:00 AM46 °FPassing clouds.No wind93%29.86 "HgN/A
11:30 PM
Apr 19
48 °FPartly cloudy.No wind94%29.86 "HgN/A
11:00 PM48 °FPassing clouds.No wind94%29.86 "HgN/A
10:30 PM48 °FPartly cloudy.No wind94%29.86 "HgN/A
10:00 PM50 °FPartly cloudy.No wind88%29.86 "HgN/A
9:30 PM50 °FPartly cloudy.No wind94%29.86 "HgN/A
9:00 PM50 °FPartly cloudy.No wind88%29.83 "HgN/A
8:30 PM50 °FPartly cloudy.2 mph88%29.83 "HgN/A
8:00 PM50 °FScattered clouds.2 mph88%29.83 "HgN/A
7:30 PM50 °FMostly cloudy.3 mph94%29.80 "HgN/A
7:00 PM52 °FMostly cloudy.3 mph88%29.80 "HgN/A
6:30 PM52 °FMostly cloudy.3 mph88%29.80 "HgN/A
6:00 PM52 °FDrizzle. Mostly cloudy.3 mph88%29.80 "HgN/A
5:30 PM52 °FCloudy.5 mph77%29.80 "HgN/A
5:00 PM52 °FCloudy.5 mph77%29.77 "HgN/A
4:30 PM52 °FCloudy.5 mph77%29.77 "HgN/A
4:00 PM52 °FCloudy.6 mph77%29.77 "HgN/A
3:30 PM50 °FDrizzle. Cloudy.7 mph88%29.77 "HgN/A
3:00 PM50 °FDrizzle. Cloudy.7 mph88%29.77 "HgN/A
2:30 PM50 °FLight rain. Mostly cloudy.5 mph88%29.77 "HgN/A
2:00 PM52 °FLight rain. Mostly cloudy.5 mph82%29.77 "HgN/A
1:30 PM52 °FLight rain. Mostly cloudy.3 mph82%29.74 "HgN/A
1:00 PM50 °FLight rain. Mostly cloudy.5 mph82%29.74 "HgN/A
12:30 PM50 °FLight rain. Mostly cloudy.6 mph82%29.74 "HgN/A
12:00 PM50 °FLight rain. Mostly cloudy.5 mph82%29.71 "HgN/A
11:30 AM48 °FLight rain. Mostly cloudy.7 mph87%29.71 "HgN/A
11:00 AM48 °FLight rain. Mostly cloudy.5 mph87%29.68 "HgN/A
10:30 AM48 °FLight rain. Mostly cloudy.7 mph87%29.68 "HgN/A
10:00 AM48 °FLight rain. More clouds than sun.9 mph87%29.65 "HgN/A
9:30 AM46 °FDrizzle. More clouds than sun.9 mph87%29.65 "HgN/A
9:00 AM46 °FLight rain. More clouds than sun.6 mph87%29.65 "HgN/A
Weather by CustomWeather, © 2014

See weather overview